www.pogodaiklimat.ru

Погода и климат >> Архив погоды >> Германия >> Ангермюнде


ПОГОДА в Ангермюнде

  • Прогноз погоды в Ангермюнде
  • Монитор погоды в Ангермюнде

АРХИВ ПОГОДЫ в Ангермюнде

Время (UTC), дата Ветер
(напр.,м/с)
 
Видим.   Явления Облачность Т
(С)
Тd
(С)
f
(%)
Тe
(С)
Тes
(С)
Комфортность P
(гПа)
Po
(гПа)
Тmin
(С)
Tmax
(С)
R
(мм)
R24
(мм)
S
(см)
08 9.09 СВ 2 4900 м слаб. дождь 10/10 90 м
[]
+13.7 +12.8 94 +13 +13 1012.4 1005.8
09 9.09 СВ 2 14 км слаб. морось {дождь} 10/10 180 м
[]
+14.5 +13.3 93 +14 +14 1011.8 1005.2 2
10 9.09 СВ 3 18 км в посл. час дождь {морось} 10/10 240 м
[]
+14.3 +12.8 91 +13 +13 1011.1 1004.5
11 9.09 СВ 4 7000 м морось {дождь} 9/9 210 м
[]
+14.1 +12.9 92 +13 +13 1010.4 1003.8
12 9.09 СВ 4 22 км в посл. час дождь {морось} 10/10 270 м
[]
+14.2 +12.5 90 +13 +13 1009.9 1003.3 0.6
13 9.09 СВ 3-5
{6}
3400 м морось 10/10 270 м
[]
+13.9 +12.8 93 +13 +13 1009.5 1002.9
14 9.09 С 2-3
{4}
5000 м слаб. морось {дымка} 10/10 150 м
[]
+14.0 +13.1 94 +13 +13 1009.4 1002.8
15 9.09 СВ 2 6000 м в посл. час морось {дымка} 9/9 150 м
[]
+14.3 +13.1 92 +14 +14 1008.9 1002.3 0.1
16 9.09 С 1-2
{3}
5000 м слаб. морось {дождь} 9/9 150 м
[]
+14.2 +13.0 92 +14 +15 1008.8 1002.2
17 9.09 СЗ 2-3
{3}
3200 м слаб. морось {дождь} 10/10 150 м
[]
+14.4 +13.6 95 +14 +14 1008.8 1002.2
18 9.09 СЗ 2 3100 м слаб. морось с дождем 10/10 200 м
[]
+14.2 +13.3 94 +14 +14 1009.2 1002.6 +13.3 +14.6 0.5
19 9.09 СЗ 2 4200 м морось {дождь} 10/10 60 м
[]
+14.2 +13.3 94 +14 +14 1009.2 1002.6
20 9.09 СЗ 4-4
{4}
6000 м в посл. час морось {дымка} 10/10 90 м
[]
+14.1 +13.4 96 +13 +13 1009.0 1002.4
21 9.09 З 4 9000 м {дождь, морось} 10/10 120 м
[]
+14.0 +13.2 95 +12 +12 1009.0 1002.4 0.1
22 9.09 З 3 14 км 10/10 150 м
[]
+13.9 +13.0 94 +13 +13 1009.1 1002.5
23 9.09 З 4 22 км 10/10 150 м
[]
+13.7 +12.6 93 +12 +12 1009.0 1002.4
00 10.09 З 5 7000 м дымка {дождь} 10/10 100 м
[]
+13.5 +12.5 94 +11 +11 1008.9 1002.3
01 10.09 З 6-9
{9}
65 км 10/10 180 м
[]
+13.0 +11.5 91 +11 +11 1009.0 1002.4
02 10.09 З 6-9
{9}
4700 м дымка 10/10 210 м
[]
+12.6 +11.5 93 +10 +10 1008.9 1002.3
03 10.09 З 6 55 км в посл. час морось {дымка} 10/10 210 м
[]
+12.6 +11.3 92 +10 +10 1008.6 1002.0 0.0
04 10.09 З 7 26 км 10/10 270 м
[]
+12.2 +10.6 90 +9 +9 1009.0 1002.4
05 10.09 З 8 15 км 10/10 400 м
[]
+12.3 +10.6 89 +9 +9 1009.3 1002.7
06 10.09 З 8 7000 м слаб. дождь {морось} 9/9 1000 м
[]
+12.5 +10.9 90 +9 +9 1009.5 1002.9 +12.1 +14.3 0.4
07 10.09 З 8 35 км в посл. час дождь {морось} 10/10 480 м
[]
+13.3 +11.2 87 +10 +10 1009.9 1003.3
08 10.09 З 9 55 км в посл. час морось 10/10 450 м
[]
+14.1 +11.3 83 +11 +11 1010.4 1003.8
09 10.09 З 9 50 км {дождь, морось} 10/10 540 м
[]
+14.6 +11.2 80 +12 +12 1011.3 1004.7 0.6
10 10.09 З 9 45 км 10/10 600 м
[]
+15.6 +11.0 74 +14 +14 1011.8 1005.2
11 10.09 З 10 >70 км 10/10 870 м
[]
+16.3 +10.2 67 +14 +14 1012.6 1006.0
12 10.09 З 11 60 км {дождь, морось} 10/10 1020 м
[]
+17.2 +9.5 61 +16 +16 1013.2 1006.7
13 10.09 З 8 65 км 10/10 1300 м
[]
+17.7 +8.3 54 +17 +17 1013.8 1007.3
14 10.09 ЮЗ 9 50 км 8/8 1380 м
[]
+18.5 +7.7 49 +18 +18 1014.3 1007.8
15 10.09 ЮЗ 7 50 км 9/9 1500 м
[]
+18.3 +7.4 49 +18 +18 1014.9 1008.4
16 10.09 ЮЗ 8-13
{14}
65 км 9/9 1500 м
[]
+18.0 +7.1 49 +17 +17 1015.5 1009.0
17 10.09 ЮЗ 5-8
{11}
60 км 10/10 1500 м
[]
+17.5 +6.9 50 +17 +17 1016.1 1009.5
18 10.09 ЮЗ 4 55 км 10/10 1500 м
[]
+17.0 +6.6 50 +17 +17 1016.6 1010.0 +12.4 +19.0
19 10.09 ЮЗ 4-7
{7}
60 км 10/0 2000 м
[]
+16.7 +6.9 52 +16 +16 1017.3 1010.7
20 10.09 ЮЗ 3-5
{7}
>70 км 10/0
[]
+15.8 +6.9 55 +15 +15 1017.8 1011.2
21 10.09 ЮЗ 3 60 км 10/0
[]
+15.7 +6.8 55 +15 +15 1018.2 1011.6
22 10.09 ЮЗ 3-5
{6}
65 км 6/0
[]
+14.6 +6.8 59 +14 +14 1018.7 1012.1
23 10.09 ЮЗ 3-6
{6}
55 км 5/0
[]
+14.0 +6.7 61 +13 +13 1019.2 1012.5
00 11.09 ЮЗ 3 60 км 3/0
[]
+13.2 +6.9 66 +12 +12 1019.8 1013.1
01 11.09 ЮЗ 4-6
{7}
60 км ясно +13.1 +6.9 66 +12 +12 1020.3 1013.6
02 11.09 З 4-5
{6}
55 км ясно +12.2 +7.2 71 +10 +10 1020.5 1013.8
03 11.09 ЮЗ 3-3
{7}
50 км ясно +10.6 +7.1 79 +9 +9 1020.8 1014.0
04 11.09 Ю 3-3
{5}
45 км ясно +9.1 +6.5 84 +7 +7 1020.9 1014.1
05 11.09 Ю 3-4
{4}
40 км ясно +8.8 +6.3 84 +6 +6 1021.5 1014.7
06 11.09 Ю 3 35 км ясно +10.0 +6.7 80 +8 +8 1022.0 1015.2 +8.8 +17.0
07 11.09 ЮЗ 2-4
{5}
45 км ясно +12.5 +7.6 72 +12 +14 1022.4 1015.7
08 11.09 Ю 4-6
{6}
50 км ясно +15.1 +8.9 66 +14 +17 1022.7 1016.0
09 11.09 ЮЗ 3 60 км ясно +17.7 +8.6 55 +18 +23 1022.8 1016.2
10 11.09 ЮЗ 5-9
{9}
55 км ясно +18.9 +7.4 47 +19 +24 1022.7 1016.1
11 11.09 ЮЗ 5-9
{9}
55 км 4/4 1410 м
[]
+19.4 +6.9 44 +20 +23 1022.3 1015.7
12 11.09 ЮЗ 5 30 км 3/3 1500 м
[]
+20.8 +6.9 41 +22 +25 комфорт 1021.8 1015.3
13 11.09 ЮЗ 5-8
{10}
40 км 1/1 1500 м
[]
+21.6 +6.1 36 +22 +26 комфорт 1021.4 1014.9
14 11.09 ЮЗ 4-9
{9}
40 км 4/0 2000 м
[]
+20.8 +5.8 38 +22 +25 комфорт 1021.1 1014.6
15 11.09 ЮЗ 4 45 км 3/0 2000 м
[]
+21.6 +5.7 35 +22 +24 комфорт 1020.8 1014.3
16 11.09 ЮЗ 4-6
{9}
60 км 1/0 2000 м
[]
+20.1 +6.0 40 +21 +22 комфорт 1020.8 1014.3
17 11.09 Ю 3 >70 км 10/0
[]
+19.4 +6.9 44 +20 +20 1020.8 1014.2
18 11.09 Ю 3 >70 км 10/0
[]
+17.9 +7.1 49 +18 +18 1020.9 1014.3 +10.0 +21.9
19 11.09 Ю 3 65 км 10/0
[]
+16.2 +8.1 59 +16 +16 1021.2 1014.6
20 11.09 Ю 3 55 км 10/0
[]
+15.8 +7.9 59 +15 +15 1021.3 1014.7
21 11.09 Ю 3 50 км 10/0
[]
+15.7 +7.7 59 +15 +15 1021.1 1014.5
22 11.09 Ю 4 60 км 9/0
[]
+15.7 +7.5 58 +15 +15 1021.0 1014.4
23 11.09 ЮЗ 4 65 км 10/0
[]
+16.7 +7.8 56 +16 +16 1021.2 1014.6
00 12.09 З 5 45 км в посл. час дождь {морось} 9/9 1500 м
[]
+15.5 +10.4 72 +14 +14 1021.9 1015.3 0.0
01 12.09 З 5 50 км 10/10 800 м
[]
+15.3 +11.6 79 +14 +14 1022.3 1015.7
02 12.09 З 6 45 км 10/10 270 м
[]
+14.7 +12.5 87 +13 +13 1022.8 1016.1
03 12.09 З 5 24 км в посл. час дождь {морось} 10/10 210 м
[]
+14.6 +12.9 90 +13 +13 1023.3 1016.6 0.0
04 12.09 З 4 29 км 10/10 300 м
[]
+14.6 +12.6 88 +13 +13 1023.3 1016.6
05 12.09 ЮЗ 2-4
{6}
25 км 3/3 270 м
[]
+13.9 +12.4 91 +13 +13 1024.1 1017.4
06 12.09 ЮЗ 3 35 км {дождь, морось} 10/10 300 м
[]
+14.8 +12.4 86 +14 +14 1024.8 1018.1 +13.8 +17.9 0.0
07 12.09 ЮЗ 4-7
{7}
35 км 10/10 330 м
[]
+15.4 +12.5 83 +14 +14 1025.2 1018.5
08 12.09 З 5-6
{7}
23 км 10/10 270 м
[]
+15.6 +13.1 85 +14 +14 1026.2 1019.5
09 12.09 ЮЗ 4 22 км 10/10 270 м
[]
+15.8 +13.3 85 +15 +15 1026.7 1020.0
10 12.09 З 5 40 км 8/8 540 м
[]
+17.9 +12.6 71 +18 +18 1026.6 1020.0
11 12.09 З 4 55 км 8/8 800 м
[]
+19.6 +12.5 64 +21 +22 комфорт 1026.5 1019.9
12 12.09 З 4 >70 км 10/10 1110 м
[]
+20.1 +11.9 59 +22 +22 комфорт 1026.6 1020.0
13 12.09 З 6 60 км 9/9 1170 м
[]
+21.8 +11.4 52 +24 +24 комфорт 1026.2 1019.7
14 12.09 З 4 60 км 10/10 1320 м
[]
+21.2 +12.0 56 +23 +23 комфорт 1026.3 1019.8
15 12.09 ЮЗ 5 60 км 10/0 2000 м
[]
+20.8 +12.1 57 +23 +24 комфорт 1026.1 1019.6
16 12.09 ЮЗ 2-4
{6}
60 км 3/0 2000 м
[]
+20.9 +12.9 60 +24 +25 комфорт 1025.8 1019.3
17 12.09 ЮЗ 2 60 км 8/8 1080 м
[]
+20.3 +12.9 62 +23 +23 комфорт 1026.1 1019.5
18 12.09 ЮЗ 2 65 км ясно +19.0 +13.2 69 +21 +21 комфорт 1026.4 1019.8 +14.8 +22.7
19 12.09 Ю 2 55 км 8/8 1440 м
[]
+17.9 +13.2 74 +18 +18 1026.4 1019.8
20 12.09 ЮЗ 2 45 км 9/9 1200 м
[]
+17.7 +13.3 75 +18 +18 1026.4 1019.8
21 12.09 З 1 40 км 9/9 1230 м
[]
+17.0 +13.4 79 +18 +18 1026.5 1019.9
22 12.09 ЮЗ 1-2
{3}
35 км 3/3 1500 м
[]
+16.1 +13.2 83 +17 +17 1026.3 1019.7
23 12.09 Ю 2-2
{2}
27 км ясно +14.8 +12.9 88 +14 +14 1026.2 1019.5
00 13.09 Ю 2 22 км 1/1 1500 м
[]
+14.4 +12.8 90 +14 +14 1025.9 1019.2
01 13.09 Ю 2-3
{3}
23 км 5/0
[]
+14.4 +12.6 89 +14 +14 1025.7 1019.0
02 13.09 Ю 2-3
{4}
21 км 3/0
[]
+14.8 +12.6 87 +14 +14 1025.4 1018.7
03 13.09 ЮЗ 3 26 км 5/0
[]
+15.8 +12.5 81 +15 +15 1025.0 1018.4
04 13.09 ЮЗ 4-6
{7}
27 км 1/0
[]
+15.8 +12.4 80 +15 +15 1025.0 1018.4
05 13.09 ЮЗ 3 23 км 10/10 1470 м
[]
+15.3 +12.3 82 +15 +15 1025.3 1018.6
06 13.09 ЮЗ 3 30 км 9/9 1500 м
[]
+16.2 +12.5 79 +16 +16 1025.0 1018.4 +14.0 +19.0
07 13.09 ЮЗ 6 45 км 9/9 1500 м
[]
+17.6 +13.0 74 +17 +17 1025.2 1018.6
08 13.09 З 7 45 км 10/10 500 м
[]
+18.3 +13.2 72 +18 +18 1025.6 1019.0
09 13.09 З 6 40 км 10/10 600 м
[]
+19.1 +13.7 71 +20 +20 1025.8 1019.2
10 13.09 З 7 45 км 8/8 660 м
[]
+20.3 +14.2 68 +22 +23 комфорт 1025.6 1019.1
11 13.09 З 7 30 км слаб. морось 9/9 800 м
[]
+20.9 +14.1 65 +23 +24 комфорт 1025.6 1019.1
12 13.09 СЗ 7 >70 км в посл. час дождь {морось} 9/9 1500 м
[]
+17.2 +14.3 83 +16 +16 1027.7 1021.1 2
13 13.09 СЗ 8 >70 км 9/9 1020 м
[]
+18.2 +11.7 66 +18 +18 1028.1 1021.5
14 13.09 СЗ 7 >70 км 9/9 1200 м
[]
+19.3 +9.6 53 +20 +20 1028.7 1022.1
15 13.09 СЗ 9 40 км 10/10 1440 м
[]
+19.2 +7.5 47 +19 +19 1029.2 1022.6
16 13.09 СЗ 7 55 км 10/0
[]
+18.0 +6.0 45 +17 +17 1029.8 1023.2
17 13.09 СЗ 5 55 км 10/0
[]
+16.1 +6.4 53 +15 +15 1030.5 1023.8
18 13.09 СЗ 3 40 км 10/0
[]
+14.2 +6.8 61 +13 +13 1031.0 1024.3 +14.2 +21.4
19 13.09 З 3 55 км 10/0
[]
+13.3 +6.6 64 +12 +12 1031.6 1024.8
20 13.09 З 3 45 км 10/0
[]
+12.2 +6.8 70 +11 +11 1032.2 1025.4
21 13.09 З 3 45 км 10/0
[]
+11.3 +6.5 72 +10 +10 1032.4 1025.6
22 13.09 З 4 35 км 10/0
[]
+11.3 +7.2 76 +9 +9 1032.7 1025.9
23 13.09 З 3-4
{5}
40 км ясно +10.8 +7.2 78 +9 +9 1033.1 1026.3
00 14.09 З 2 35 км ясно +9.9 +7.2 83 +8 +8 1033.4 1026.5
01 14.09 СЗ 4-5
{6}
35 км ясно +10.4 +7.5 82 +8 +8 1033.3 1026.5
02 14.09 З 4 35 км 6/0
[]
+9.7 +7.4 86 +7 +7 1033.2 1026.3
03 14.09 З 3-4
{6}
35 км ясно +8.8 +7.1 89 +6 +6 1033.4 1026.5
04 14.09 СЗ 2-3
{5}
30 км ясно +8.4 +7.2 92 +6 +6 1033.7 1026.8
05 14.09 З 3-3
{4}
30 км ясно +7.6 +6.6 93 +5 +5 1034.0 1027.1
06 14.09 З 2 30 км 5/0
[]
+9.2 +7.9 92 +7 +8 1034.2 1027.3 +7.3 +14.3
07 14.09 З 2 35 км 10/0
[]
+10.8 +8.2 84 +9 +11 1034.4 1027.6
08 14.09 СЗ 3-4
{4}
60 км 8/0
[]
+13.9 +8.3 69 +13 +15 1034.5 1027.7
09 14.09 СЗ 4 35 км 1/1 840 м
[]
+15.6 +6.7 55 +15 +19 1034.7 1028.0
10 14.09 СЗ 4-8
{8}
45 км 1/1 1140 м
[]
+16.9 +5.8 48 +16 +21 1034.3 1027.6
11 14.09 З 3 50 км 5/5 1300 м
[]
+16.5 +5.4 48 +16 +20 1033.8 1027.1
12 14.09 З 3 55 км 6/6 1440 м
[]
+17.8 +4.2 40 +18 +21 1033.2 1026.5
13 14.09 СЗ 4 55 км 6/6 1500 м
[]
+18.8 +4.8 40 +19 +21 1032.6 1026.0
14 14.09 З 3 >70 км 5/5 1500 м
[]
+18.6 +3.8 37 +19 +21 1031.9 1025.3
15 14.09 З 3 50 км 5/0
[]
+18.8 +3.4 36 +19 +21 1031.3 1024.7
16 14.09 З 3 55 км 10/0
[]
+17.6 +3.5 39 +18 +18 1030.6 1023.9
17 14.09 З 1-2
{3}
65 км 10/0
[]
+15.0 +5.9 54 +16 +16 1030.3 1023.6
18 14.09 З 2 50 км 10/0
[]
+12.3 +6.6 68 +12 +12 1030.4 1023.6 +9.2 +19.4
19 14.09 З 2 50 км 9/0
[]
+10.0 +6.7 80 +9 +9 1030.5 1023.7
20 14.09 Ю 2-3
{3}
40 км 3/0
[]
+9.8 +5.7 76 +8 +8 1029.5 1022.7
21 14.09 ЮЗ 1 30 км 1/0
[]
+8.2 +5.2 81 +7 +7 1029.3 1022.4
22 14.09 Ю 2-2
{2}
35 км н/о +8.3 +5.6 83 +6 +6 1028.8 1021.9
23 14.09 Ю 3-4
{4}
40 км 6/0
[]
+9.3 +5.5 77 +7 +7 1027.6 1020.8
00 15.09 Ю 3 45 км 9/0
[]
+9.5 +4.9 73 +7 +7 1026.7 1019.9
01 15.09 Ю 4 45 км 10/0
[]
+10.2 +4.4 67 +8 +8 1025.9 1019.1
02 15.09 Ю 4 45 км 9/0
[]
+9.8 +4.1 68 +7 +7 1025.2 1018.4
03 15.09 Ю 4 50 км 10/0
[]
+9.9 +4.2 68 +7 +7 1024.3 1017.5
04 15.09 Ю 4-5
{6}
40 км н/о +9.3 +4.5 72 +7 +7 1023.4 1016.6
05 15.09 Ю 5-6
{6}
40 км н/о +8.9 +4.8 75 +6 +6 1022.4 1015.6
06 15.09 Ю 5 45 км н/о +10.6 +5.4 70 +8 +8 1021.4 1014.6 +7.7 +12.3
07 15.09 ЮЗ 4-7
{7}
55 км н/о +14.7 +6.3 57 +14 +14 1020.9 1014.2
08 15.09 ЮЗ 4-7
{9}
50 км 10/0
[]
+16.5 +7.3 54 +16 +17 1019.9 1013.3
09 15.09 З 6 55 км 10/0
[]
+17.2 +7.2 52 +16 +18 1019.5 1012.9
10 15.09 З 5 >70 км 10/0
[]
+18.8 +5.6 42 +19 +21 1019.0 1012.4
11 15.09 З 7-10
{10}
>70 км 10/0
[]
+19.2 +4.2 37 +19 +20 1018.6 1012.1
12 15.09 ЮЗ 7 55 км 10/0
[]
+21.2 +2.7 29 +21 +22 комфорт 1017.8 1011.3
13 15.09 З 8 55 км 10/0
[]
+21.7 +2.3 28 +22 +22 комфорт 1017.0 1010.5
14 15.09 З 7-11
{14}
50 км 10/0
[]
+22.4 +2.0 26 +22 +23 комфорт 1016.3 1009.8
15 15.09 З 8 >70 км 10/10 1500 м
[]
+22.6 +2.9 27 +22 +22 комфорт 1015.8 1009.3
16 15.09 З 7 65 км 9/9 1500 м
[]
+22.2 +4.4 31 +22 +22 комфорт 1015.8 1009.3
17 15.09 З 7 60 км 10/10 1500 м
[]
+21.2 +9.2 46 +22 +22 комфорт 1016.0 1009.5
18 15.09 З 6 55 км 10/10 1000 м
[]
+19.7 +11.6 60 +21 +21 комфорт 1016.4 1009.9 +10.6 +23.3
19 15.09 З 5-9
{13}
60 км 10/10 840 м
[]
+18.8 +12.6 67 +19 +19 1016.6 1010.1
20 15.09 З 6 65 км в посл. час дождь {морось} 9/9 540 м
[]
+16.7 +13.0 79 +16 +16 1017.0 1010.4
21 15.09 З 6 60 км в посл. час дождь {морось} 10/10 1500 м
[]
+16.0 +10.9 72 +15 +15 1017.1 1010.5 0.0
22 15.09 З 5 40 км 10/10 1500 м
[]
+15.6 +9.1 65 +14 +14 1017.5 1010.9
23 15.09 З 6 30 км 10/10 750 м
[]
+14.7 +9.4 71 +13 +13 1017.8 1011.2
00 16.09 З 4 30 км {дождь, морось} 6/6 600 м
[]
+13.5 +9.0 74 +12 +12 1018.2 1011.5
01 16.09 З 5-7
{8}
26 км ясно +12.6 +9.0 79 +10 +10 1018.1 1011.4
02 16.09 З 4-6
{7}
24 км ясно +11.6 +9.1 85 +9 +9 1018.2 1011.5
03 16.09 З 4-6
{8}
22 км ясно +11.0 +8.7 86 +9 +9 1018.1 1011.4
04 16.09 З 4 18 км 9/0
[]
+10.7 +8.5 86 +8 +8 1018.0 1011.3
05 16.09 З 5 19 км 10/0
[]
+10.7 +8.5 86 +8 +8 1018.1 1011.4
06 16.09 З 5 20 км 10/0
[]
+11.1 +8.2 82 +8 +8 1018.2 1011.5 +10.6 +19.7 0.0

 

Местоположение метеостанции Ангермюнде (Германия): широта 53.03 долгота 14.00 высота над уровнем моря 55 м.

В архиве по умолчанию представлена погода в Ангермюнде за последнюю неделю. Архивные данные за месяц целиком и за предыдущие месяцы, начиная с января 2011 года, Вы можете получить, выбрав интересующий диапазон дат из раскрывающегося списка и нажав кнопку "Ввод!".


*Определитесь, кто Вы:
робот инопланетянин человек

Внимание! Время в таблицах - всемирное. Для получения местного времени необходимо прибавить поправку, которая равна 1 ч.

Смотрите также архив погоды в соседних городах и на ближайших метеорологических станциях:

Погода в Грюнове (Германия) (33 км)
Погода в Мекленбурге (Германия) (50 км)
Погода в Щецине (Польша) (58 км)
Погода в Маншно (Германия) (65 км)
Погода в Берлин-Тегеле (Германия) (69 км)
Погода в Берлине (Германия) (74 км)
Погода в Тролленхагене (Германия) (78 км)
Погода в Берлин-Далеме (Германия) (78 км)
Погода в Берлин-Шёнефельде (Германия) (79 км)
Погода в Иккермюнде (Германия) (80 км)

Пояснения к столбцам:

Ветер - указаны скорость ветра в м/с - средняя за 10 мин, порывы в срок и между сроками (в фигурных скобках) и направление, откуда дует ветер: С - северный, СВ - северо-восточный, В - восточный, ЮВ - юго-восточный, Ю - южный, ЮЗ - юго-западный, З - западный, СЗ - северо-западный.
Видимость - горизонтальная дальность видимости в метрах или километрах. При видимости от 1 до 10 км при отсутствии осадков обычно наблюдается дымка, при ухудшении видимости до 1 км и менее - туман. В сухую погоду видимость может ухудшаться дымом, пылью или мглою.
Явления - указаны атмосферные явления, наблюдавшиеся в срок или в последний час перед сроком; фигурными скобками обозначены явления, наблюдавшиеся между сроками (за 1-3 часа до срока); квадратными скобками обозначены град или гололедные отложения с указанием их диаметра в мм.
Облачность - указаны через наклонную черту общая и нижняя облачность в баллах и высота нижней границы облаков в метрах; квадратными скобками обозначены формы облаков: Ci - перистые, Cs - перисто-слоистые, Cc - перисто-кучевые, Ac - высококучевые, As - высокослоистые, Sc - слоисто-кучевые, Ns - слоисто-дождевые, Cu - кучевые, Cb - кучево-дождевые. Подробнее классификацию облаков см. в Атласе облаков (PDF).
T - Температура воздуха - температура, измеренная на высоте 2 м над землей.
Td - Температура точки росы - температура, при понижении до которой содержащийся в воздухе водяной пар достигнет насыщения.
f - Относительная влажность воздуха - влажноcть воздуха, измеренная на высоте 2 м над землей.
Te - Эффективная температура - температура, которую ощущает одетый по сезону человек в тени. Характеристика душности погоды. При расчете учитывается влияние влажности воздуха и скорости ветра на теплоощущения человека.
Tes - Эффективная температура на солнце - температура, которую ощущает человек, с поправкой на солнечный нагрев. Характеристика знойности погоды. Зависит от высоты солнца над горизонтом, облачности и скорости ветра. Ночью, в пасмурную погоду, а также при ветре 12 м/с и более поправка равна нулю.
P - Атмосферное давление - приведенное к уровню моря атмосферное давление.
Po - Атмосферное давление - измеренное на уровне метеостанции атмосферное давление.
Tmin - Минимальная температура - минимум температуры воздуха на высоте 2 м над землей.
Tmax - Максимальная температура - максимум температуры воздуха на высоте 2 м над землей.
R - Количество осадков - Количество выпавших осадков за период времени, мм. При наведении курсора мыши на число - период времени, за который выпало указанное количество осадков.
R24 - Количество осадков - Количество выпавших осадков за 24 часа, мм.
S - Снежный покров - Высота снежного покрова, см. При наведении курсора мыши на число - состояние снежного покрова и степень покрытия местности в баллах.